| time (UTC) | temp F | wind direction | speed knots | gust knots | rain 1hr in | rain 24hr in | rain mn in | humidity % | barometer mb |
| 20260906060442 | 72 | 171 | 0.0 | 1.7 | 0.00 | 0.00 | 0.00 | 93 | 1013.7 |
| 20260906055941 | 71 | 183 | 0.0 | 0.0 | 0.00 | 0.00 | 0.00 | 93 | 1013.4 |
| 20260906055709 | 72 | 183 | 0.0 | 0.0 | 0.00 | 0.00 | 0.00 | 93 | 1013.4 |
| 20260906054939 | 72 | 183 | 0.0 | 0.0 | 0.00 | 0.00 | 0.00 | 93 | 1013.5 |
| 20260906054439 | 72 | 189 | 0.0 | 0.0 | 0.00 | 0.00 | 0.00 | 93 | 1013.7 |
| 20260906053939 | 72 | 188 | 0.0 | 0.0 | 0.00 | 0.00 | 0.00 | 93 | 1013.8 |
| 20260906053439 | 72 | 188 | 0.0 | 0.0 | 0.00 | 0.00 | 0.00 | 93 | 1013.8 |
| 20260906052940 | 72 | 188 | 0.0 | 0.0 | 0.00 | 0.00 | 0.00 | 93 | 1013.9 |
| 20260906052440 | 72 | 188 | 0.0 | 0.9 | 0.00 | 0.00 | 0.00 | 93 | 1013.9 |
| 20260906052203 | 72 | 188 | 0.0 | 0.9 | 0.00 | 0.00 | 0.00 | 93 | 1014.0 |
| 20260906051438 | 72 | 188 | 0.0 | 0.9 | 0.00 | 0.00 | 0.00 | 93 | 1014.0 |
| 20260906050938 | 72 | 189 | 0.0 | 0.9 | 0.00 | 0.00 | 0.00 | 93 | 1014.0 |
| 20260906050437 | 72 | 190 | 0.0 | 0.9 | 0.00 | 0.00 | 0.00 | 93 | 1014.0 |
| 20260906045937 | 73 | 190 | 0.0 | 0.9 | 0.00 | 0.00 | 0.00 | 92 | 1014.1 |
| 20260906045436 | 73 | 190 | 0.0 | 0.9 | 0.00 | 0.00 | 0.00 | 92 | 1014.1 |
| 20260906044936 | 73 | 190 | 0.0 | 0.9 | 0.00 | 0.00 | 0.00 | 92 | 1014.0 |
| 20260906044432 | 73 | 190 | 0.0 | 0.9 | 0.00 | 0.00 | 0.00 | 92 | 1014.0 |
| 20260906043932 | 73 | 192 | 0.0 | 0.9 | 0.00 | 0.00 | 0.00 | 92 | 1014.0 |
| 20260906043432 | 73 | 193 | 0.0 | 0.9 | 0.00 | 0.00 | 0.00 | 92 | 1014.1 |
| 20260906042927 | 73 | 198 | 0.0 | 0.9 | 0.00 | 0.00 | 0.00 | 92 | 1014.1 |
| 20260906042428 | 73 | 198 | 0.0 | 0.9 | 0.00 | 0.00 | 0.00 | 92 | 1014.0 |
| 20260906042151 | 73 | 198 | 0.0 | 0.9 | 0.00 | 0.00 | 0.00 | 92 | 1014.0 |
| 20260906041423 | 73 | 198 | 0.0 | 0.9 | 0.00 | 0.00 | 0.00 | 92 | 1014.1 |
| 20260906041139 | 73 | 198 | 0.0 | 0.9 | 0.00 | 0.00 | 0.00 | 91 | 1014.0 |
| 20260906040417 | 73 | 200 | 0.0 | 0.9 | 0.00 | 0.00 | 0.00 | 91 | 1014.1 |
| 20260906035914 | 73 | 204 | 0.0 | 0.9 | 0.00 | 0.00 | 0.00 | 91 | 1014.1 |
| 20260906035409 | 73 | 207 | 0.0 | 0.9 | 0.00 | 0.00 | 0.00 | 91 | 1014.1 |
| 20260906034910 | 73 | 207 | 0.0 | 0.9 | 0.00 | 0.00 | 0.00 | 91 | 1014.1 |
| 20260906034410 | 74 | 209 | 0.0 | 0.9 | 0.00 | 0.00 | 0.00 | 90 | 1014.1 |
| 20260906033909 | 74 | 216 | 0.0 | 0.9 | 0.00 | 0.00 | 0.00 | 90 | 1014.1 |
| 20260906033410 | 74 | 216 | 0.0 | 0.9 | 0.00 | 0.00 | 0.00 | 90 | 1014.2 |
| 20260906032910 | 74 | 217 | 0.0 | 0.9 | 0.00 | 0.00 | 0.00 | 89 | 1014.2 |
| 20260906032410 | 74 | 217 | 0.0 | 0.9 | 0.00 | 0.00 | 0.00 | 89 | 1014.2 |
| 20260906031909 | 75 | 217 | 0.0 | 1.7 | 0.00 | 0.00 | 0.00 | 88 | 1014.4 |
| 20260906031410 | 75 | 217 | 0.0 | 1.7 | 0.00 | 0.00 | 0.00 | 88 | 1014.3 |
| 20260906030906 | 75 | 219 | 0.0 | 0.9 | 0.00 | 0.00 | 0.00 | 87 | 1014.3 |
| 20260906030405 | 75 | 221 | 0.0 | 1.7 | 0.00 | 0.00 | 0.00 | 88 | 1014.3 |
| 20260906030127 | 76 | 221 | 0.9 | 2.6 | 0.00 | 0.00 | 0.00 | 87 | 1014.4 |
| 20260906025405 | 76 | 227 | 0.0 | 2.6 | 0.00 | 0.00 | 0.00 | 87 | 1014.2 |
| 20260906024905 | 76 | 238 | 0.9 | 2.6 | 0.00 | 0.00 | 0.00 | 87 | 1014.3 |
| 20260906024629 | 76 | 242 | 1.7 | 3.5 | 0.00 | 0.00 | 0.00 | 86 | 1014.4 |
| 20260906023905 | 76 | 240 | 2.6 | 4.3 | 0.00 | 0.00 | 0.00 | 86 | 1014.3 |
| 20260906023624 | 76 | 215 | 1.7 | 4.3 | 0.00 | 0.00 | 0.00 | 87 | 1014.4 |
| 20260906022904 | 76 | 225 | 0.9 | 3.5 | 0.00 | 0.00 | 0.00 | 87 | 1014.4 |
| 20260906022401 | 75 | 236 | 0.9 | 3.5 | 0.00 | 0.00 | 0.00 | 87 | 1014.2 |
| 20260906021901 | 75 | 179 | 0.9 | 1.7 | 0.00 | 0.00 | 0.00 | 87 | 1014.1 |
| 20260906021402 | 75 | 180 | 0.9 | 1.7 | 0.00 | 0.00 | 0.00 | 87 | 1014.0 |
| 20260906021118 | 74 | 178 | 0.9 | 1.7 | 0.00 | 0.00 | 0.00 | 86 | 1013.9 |
| 20260906020402 | 74 | 180 | 0.9 | 1.7 | 0.00 | 0.00 | 0.00 | 86 | 1013.8 |
| 20260906015902 | 74 | 191 | 0.9 | 1.7 | 0.00 | 0.00 | 0.00 | 85 | 1013.7 |
| 20260906015622 | 74 | 191 | 0.9 | 1.7 | 0.00 | 0.00 | 0.00 | 85 | 1013.7 |
| 20260906014901 | 74 | 191 | 0.9 | 1.7 | 0.00 | 0.00 | 0.00 | 84 | 1013.7 |
| 20260906014402 | 75 | 191 | 0.9 | 1.7 | 0.00 | 0.00 | 0.00 | 84 | 1013.5 |
| 20260906013901 | 75 | 191 | 0.9 | 1.7 | 0.00 | 0.00 | 0.00 | 84 | 1013.5 |
| 20260906013854 | 75 | 190 | 0.0 | 0.9 | 0.00 | 0.00 | 0.00 | 84 | 1013.5 |
| 20260906012859 | 75 | 190 | 0.0 | 0.9 | 0.00 | 0.00 | 0.00 | 84 | 1013.7 |
| 20260906012359 | 76 | 190 | 0.0 | 0.9 | 0.00 | 0.00 | 0.00 | 83 | 1013.7 |
| 20260906011900 | 76 | 190 | 0.0 | 1.7 | 0.00 | 0.00 | 0.00 | 83 | 1013.7 |
| 20260906011400 | 76 | 190 | 0.9 | 1.7 | 0.00 | 0.00 | 0.00 | 82 | 1013.7 |
| 20260906010859 | 76 | 196 | 0.9 | 1.7 | 0.00 | 0.00 | 0.00 | 82 | 1013.5 |
| 20260906010359 | 76 | 196 | 0.9 | 1.7 | 0.00 | 0.00 | 0.00 | 83 | 1013.5 |
| 20260906005857 | 77 | 196 | 0.9 | 1.7 | 0.00 | 0.00 | 0.00 | 83 | 1013.4 |
| 20260906005356 | 77 | 197 | 0.9 | 1.7 | 0.00 | 0.00 | 0.00 | 82 | 1013.5 |
| 20260906004853 | 78 | 197 | 0.0 | 0.9 | 0.00 | 0.00 | 0.00 | 81 | 1013.4 |
| 20260906004354 | 78 | 197 | 0.9 | 2.6 | 0.00 | 0.00 | 0.00 | 80 | 1013.3 |
| 20260906003850 | 78 | 197 | 0.9 | 3.5 | 0.00 | 0.00 | 0.00 | 80 | 1013.2 |
| 20260906003350 | 78 | 206 | 0.9 | 4.3 | 0.00 | 0.00 | 0.00 | 80 | 1013.2 |
| 20260906002849 | 78 | 224 | 1.7 | 5.2 | 0.00 | 0.00 | 0.00 | 80 | 1013.2 |
| 20260906002347 | 78 | 224 | 1.7 | 5.2 | 0.00 | 0.00 | 0.00 | 81 | 1013.3 |
| 20260906002106 | 77 | 184 | 0.9 | 4.3 | 0.00 | 0.00 | 0.00 | 83 | 1013.3 |
| 20260906001348 | 77 | 159 | 0.0 | 0.0 | 0.00 | 0.00 | 0.00 | 82 | 1013.2 |
| 20260906001328 | 77 | 159 | 0.0 | 0.9 | 0.00 | 0.00 | 0.00 | 82 | 1013.1 |
| 20260906000343 | 77 | 159 | 0.0 | 0.9 | 0.00 | 0.00 | 0.00 | 83 | 1013.0 |
| 20260905235843 | 77 | 159 | 0.0 | 0.9 | 0.00 | 0.00 | 0.00 | 83 | 1012.9 |
| 20260905235340 | 78 | 159 | 0.9 | 0.9 | 0.00 | 0.00 | 0.00 | 82 | 1012.8 |
| 20260905234839 | 78 | 159 | 0.0 | 1.7 | 0.00 | 0.00 | 0.00 | 81 | 1012.8 |
| 20260905234604 | 79 | 159 | 0.0 | 1.7 | 0.00 | 0.00 | 0.00 | 81 | 1012.7 |
| 20260905234056 | 79 | 158 | 0.0 | 1.7 | 0.00 | 0.00 | 0.00 | 80 | 1012.7 |
| 20260905233336 | 79 | 158 | 0.0 | 0.9 | 0.00 | 0.00 | 0.00 | 79 | 1012.5 |
| 20260905232838 | 80 | 158 | 0.0 | 0.0 | 0.00 | 0.00 | 0.00 | 79 | 1012.6 |
| 20260905232334 | 80 | 158 | 0.0 | 0.9 | 0.00 | 0.00 | 0.00 | 78 | 1012.6 |
| 20260905231834 | 80 | 158 | 0.0 | 0.9 | 0.00 | 0.00 | 0.00 | 77 | 1012.7 |
| 20260905231559 | 80 | 158 | 0.0 | 0.9 | 0.00 | 0.00 | 0.00 | 76 | 1012.7 |
| 20260905230830 | 81 | 158 | 0.0 | 0.9 | 0.00 | 0.00 | 0.00 | 75 | 1012.8 |
| 20260905230327 | 81 | 158 | 0.0 | 1.7 | 0.00 | 0.00 | 0.00 | 74 | 1012.9 |
| 20260905230047 | 81 | 158 | 0.0 | 1.7 | 0.00 | 0.00 | 0.00 | 73 | 1013.0 |
| 20260905225322 | 82 | 158 | 0.0 | 0.0 | 0.00 | 0.00 | 0.00 | 73 | 1012.9 |
| 20260905224820 | 81 | 158 | 0.0 | 0.0 | 0.00 | 0.00 | 0.00 | 73 | 1012.9 |
| 20260905224539 | 82 | 158 | 0.0 | 0.0 | 0.00 | 0.00 | 0.00 | 74 | 1012.9 |
| 20260905223819 | 82 | 158 | 0.0 | 0.0 | 0.00 | 0.00 | 0.00 | 74 | 1013.0 |
| 20260905223318 | 82 | 158 | 0.0 | 0.0 | 0.00 | 0.00 | 0.00 | 74 | 1012.9 |
| 20260905223039 | 81 | 158 | 0.0 | 0.9 | 0.00 | 0.00 | 0.00 | 74 | 1013.0 |
| 20260905222319 | 81 | 158 | 0.0 | 0.9 | 0.00 | 0.00 | 0.00 | 73 | 1013.0 |
| 20260905222041 | 82 | 158 | 0.0 | 0.9 | 0.00 | 0.00 | 0.00 | 72 | 1012.9 |
| 20260905221537 | 81 | 158 | 0.0 | 1.7 | 0.00 | 0.00 | 0.00 | 73 | 1012.9 |
| 20260905221036 | 81 | 158 | 0.9 | 1.7 | 0.00 | 0.00 | 0.00 | 73 | 1012.9 |
| 20260905220317 | 82 | 158 | 0.9 | 1.7 | 0.00 | 0.00 | 0.00 | 70 | 1012.9 |
| 20260905215816 | 81 | 157 | 0.0 | 2.6 | 0.00 | 0.00 | 0.00 | 70 | 1013.0 |
| 20260905215317 | 81 | 157 | 0.0 | 2.6 | 0.00 | 0.00 | 0.00 | 72 | 1013.1 |
| 20260905214817 | 81 | 157 | 0.0 | 0.9 | 0.00 | 0.00 | 0.00 | 74 | 1013.2 |
| 20260905214317 | 81 | 157 | 0.0 | 0.9 | 0.00 | 0.00 | 0.00 | 73 | 1013.1 |
| 20260905213817 | 81 | 157 | 0.0 | 0.9 | 0.00 | 0.00 | 0.00 | 73 | 1013.1 |
| 20260905213317 | 81 | 156 | 0.0 | 0.9 | 0.00 | 0.00 | 0.00 | 73 | 1013.1 |
| 20260905212817 | 81 | 156 | 0.9 | 2.6 | 0.00 | 0.00 | 0.00 | 73 | 1013.2 |
| 20260905212542 | 81 | 156 | 0.9 | 2.6 | 0.00 | 0.00 | 0.00 | 71 | 1013.3 |
| 20260905211817 | 82 | 156 | 0.9 | 2.6 | 0.00 | 0.00 | 0.00 | 70 | 1013.3 |
| 20260905211317 | 81 | 153 | 0.9 | 2.6 | 0.00 | 0.00 | 0.00 | 69 | 1013.3 |
| 20260905210817 | 81 | 107 | 0.0 | 1.7 | 0.00 | 0.00 | 0.00 | 71 | 1013.4 |
| 20260905210317 | 81 | 108 | 0.0 | 1.7 | 0.00 | 0.00 | 0.00 | 70 | 1013.5 |
| 20260905210020 | 80 | 107 | 0.9 | 2.6 | 0.00 | 0.00 | 0.00 | 70 | 1013.7 |
| 20260905205901 | 80 | 108 | 0.9 | 2.6 | 0.00 | 0.00 | 0.00 | 71 | 1013.5 |
| 20260905204815 | 80 | 115 | 0.9 | 2.6 | 0.00 | 0.00 | 0.00 | 71 | 1013.5 |
| 20260905204312 | 80 | 107 | 0.9 | 4.3 | 0.00 | 0.00 | 0.00 | 70 | 1013.4 |
| 20260905203814 | 80 | 18 | 0.9 | 4.3 | 0.00 | 0.00 | 0.00 | 72 | 1013.5 |
| 20260905203313 | 80 | 292 | 0.9 | 2.6 | 0.00 | 0.00 | 0.00 | 72 | 1013.4 |
| 20260905202813 | 80 | 336 | 0.9 | 2.6 | 0.00 | 0.00 | 0.00 | 73 | 1013.4 |
| 20260905202751 | 80 | 201 | 0.9 | 2.6 | 0.00 | 0.00 | 0.00 | 75 | 1013.3 |
| 20260905201812 | 80 | 269 | 0.0 | 1.7 | 0.00 | 0.00 | 0.00 | 75 | 1013.4 |
| 20260905201313 | 80 | 270 | 0.9 | 2.6 | 0.00 | 0.00 | 0.00 | 73 | 1013.5 |
| 20260905200813 | 80 | 272 | 0.9 | 2.6 | 0.00 | 0.00 | 0.00 | 74 | 1013.9 |
| 20260905200312 | 80 | 22 | 1.7 | 3.5 | 0.00 | 0.00 | 0.00 | 73 | 1014.0 |
| 20260905200256 | 79 | 251 | 1.7 | 3.5 | 0.00 | 0.00 | 0.00 | 73 | 1014.1 |
| 20260905195312 | 79 | 283 | 0.9 | 3.5 | 0.00 | 0.00 | 0.00 | 73 | 1014.0 |
| 20260905195031 | 80 | 55 | 0.9 | 5.2 | 0.00 | 0.00 | 0.00 | 72 | 1013.8 |
| 20260905194312 | 80 | 302 | 1.7 | 5.2 | 0.00 | 0.00 | 0.00 | 73 | 1013.7 |
| 20260905193813 | 80 | 288 | 0.9 | 5.2 | 0.00 | 0.00 | 0.00 | 73 | 1013.8 |
| 20260905193531 | 80 | 262 | 0.9 | 5.2 | 0.00 | 0.00 | 0.00 | 73 | 1014.1 |
| 20260905192813 | 80 | 109 | 1.7 | 8.7 | 0.00 | 0.00 | 0.00 | 73 | 1014.3 |
| 20260905192313 | 80 | 291 | 2.6 | 9.6 | 0.00 | 0.00 | 0.00 | 74 | 1014.6 |
| 20260905191813 | 80 | 0 | 3.5 | 9.6 | 0.00 | 0.00 | 0.00 | 76 | 1014.8 |
| 20260905191313 | 80 | 21 | 2.6 | 8.7 | 0.00 | 0.00 | 0.00 | 75 | 1014.9 |
| 20260905190812 | 80 | 36 | 1.7 | 7.8 | 0.00 | 0.00 | 0.00 | 78 | 1014.8 |
| 20260905190313 | 80 | 231 | 2.6 | 7.0 | 0.00 | 0.00 | 0.00 | 77 | 1014.3 |
| 20260905185813 | 80 | 154 | 2.6 | 7.0 | 0.00 | 0.00 | 0.00 | 79 | 1014.3 |
| 20260905185313 | 82 | 29 | 2.6 | 7.8 | 0.00 | 0.00 | 0.00 | 78 | 1014.3 |
| 20260905184812 | 83 | 304 | 3.5 | 11.3 | 0.00 | 0.00 | 0.00 | 74 | 1014.3 |
| 20260905184312 | 87 | 109 | 3.5 | 11.3 | 0.00 | 0.00 | 0.00 | 68 | 1014.1 |
| 20260905183812 | 91 | 211 | 0.9 | 10.4 | 0.00 | 0.00 | 0.00 | 60 | 1013.9 |
| 20260905183308 | 91 | 247 | 0.9 | 2.6 | 0.00 | 0.00 | 0.00 | 58 | 1013.7 |
| 20260905182809 | 92 | 251 | 0.9 | 4.3 | 0.00 | 0.00 | 0.00 | 57 | 1013.4 |
| 20260905182308 | 92 | 261 | 1.7 | 4.3 | 0.00 | 0.00 | 0.00 | 56 | 1013.4 |
| 20260905181808 | 92 | 307 | 1.7 | 4.3 | 0.00 | 0.00 | 0.00 | 56 | 1013.7 |
| 20260905181309 | 92 | 132 | 1.7 | 7.0 | 0.00 | 0.00 | 0.00 | 55 | 1014.0 |
| 20260905180809 | 93 | 130 | 1.7 | 7.0 | 0.00 | 0.00 | 0.00 | 53 | 1013.9 |
| 20260905180527 | 93 | 36 | 1.7 | 4.3 | 0.00 | 0.00 | 0.00 | 55 | 1013.9 |
| 20260905180030 | 93 | 122 | 1.7 | 4.3 | 0.00 | 0.00 | 0.00 | 54 | 1013.8 |
| 20260905175309 | 94 | 71 | 1.7 | 5.2 | 0.00 | 0.00 | 0.00 | 52 | 1014.0 |
| 20260905174808 | 95 | 110 | 1.7 | 6.1 | 0.00 | 0.00 | 0.00 | 52 | 1013.9 |
| 20260905174527 | 95 | 119 | 1.7 | 6.1 | 0.00 | 0.00 | 0.00 | 53 | 1013.9 |
| 20260905173808 | 96 | 296 | 2.6 | 8.7 | 0.00 | 0.00 | 0.00 | 52 | 1014.1 |
| 20260905173308 | 96 | 86 | 2.6 | 8.7 | 0.00 | 0.00 | 0.00 | 52 | 1014.1 |
| 20260905172809 | 96 | 57 | 2.6 | 6.1 | 0.00 | 0.00 | 0.00 | 54 | 1014.2 |
| 20260905172308 | 95 | 182 | 2.6 | 6.1 | 0.00 | 0.00 | 0.00 | 55 | 1014.2 |
| 20260905172027 | 94 | 258 | 2.6 | 5.2 | 0.00 | 0.00 | 0.00 | 59 | 1014.2 |
| 20260905171308 | 94 | 134 | 2.6 | 5.2 | 0.00 | 0.00 | 0.00 | 57 | 1014.3 |
| 20260905170805 | 94 | 147 | 1.7 | 6.1 | 0.00 | 0.00 | 0.00 | 57 | 1014.4 |
| 20260905170533 | 94 | 98 | 1.7 | 6.1 | 0.00 | 0.00 | 0.00 | 57 | 1014.6 |
| 20260905165805 | 95 | 48 | 1.7 | 6.1 | 0.00 | 0.00 | 0.00 | 56 | 1014.7 |
| 20260905165306 | 94 | 96 | 1.7 | 4.3 | 0.00 | 0.00 | 0.00 | 57 | 1014.8 |
| 20260905164804 | 94 | 285 | 1.7 | 4.3 | 0.00 | 0.00 | 0.00 | 58 | 1014.9 |
| 20260905164305 | 95 | 53 | 1.7 | 6.1 | 0.00 | 0.00 | 0.00 | 56 | 1015.0 |
| 20260905163804 | 94 | 103 | 2.6 | 7.0 | 0.00 | 0.00 | 0.00 | 57 | 1015.1 |
| 20260905163302 | 94 | 134 | 2.6 | 7.0 | 0.00 | 0.00 | 0.00 | 57 | 1015.2 |
| 20260905163034 | 94 | 263 | 1.7 | 5.2 | 0.00 | 0.00 | 0.00 | 56 | 1015.2 |
| 20260905162305 | 94 | 12 | 1.7 | 5.2 | 0.00 | 0.00 | 0.00 | 58 | 1015.3 |
| 20260905161759 | 93 | 127 | 1.7 | 3.5 | 0.00 | 0.00 | 0.00 | 59 | 1015.3 |
| 20260905161521 | 94 | 111 | 1.7 | 4.3 | 0.00 | 0.00 | 0.00 | 60 | 1015.2 |
| 20260905160759 | 93 | 282 | 1.7 | 5.2 | 0.00 | 0.00 | 0.00 | 62 | 1015.2 |
| 20260905160256 | 92 | 263 | 1.7 | 6.1 | 0.00 | 0.00 | 0.00 | 60 | 1015.3 |
| 20260905160017 | 93 | 228 | 1.7 | 6.1 | 0.00 | 0.00 | 0.00 | 62 | 1015.3 |
| 20260905155256 | 93 | 111 | 1.7 | 4.3 | 0.00 | 0.00 | 0.00 | 59 | 1015.4 |
| 20260905154756 | 93 | 78 | 1.7 | 4.3 | 0.00 | 0.00 | 0.00 | 62 | 1015.4 |
| 20260905154256 | 92 | 109 | 0.9 | 3.5 | 0.00 | 0.00 | 0.00 | 62 | 1015.4 |
| 20260905153756 | 92 | 65 | 0.9 | 2.6 | 0.00 | 0.00 | 0.00 | 63 | 1015.3 |
| 20260905153256 | 91 | 78 | 1.7 | 5.2 | 0.00 | 0.00 | 0.00 | 65 | 1015.4 |
| 20260905152752 | 91 | 71 | 1.7 | 7.0 | 0.00 | 0.00 | 0.00 | 60 | 1015.5 |
| 20260905152252 | 91 | 70 | 1.7 | 7.0 | 0.00 | 0.00 | 0.00 | 61 | 1015.5 |
| 20260905151752 | 91 | 61 | 1.7 | 4.3 | 0.00 | 0.00 | 0.00 | 62 | 1015.6 |
| 20260905151252 | 91 | 91 | 1.7 | 4.3 | 0.00 | 0.00 | 0.00 | 61 | 1015.6 |
| 20260905150752 | 91 | 134 | 1.7 | 4.3 | 0.00 | 0.00 | 0.00 | 62 | 1015.6 |
| 20260905150252 | 91 | 302 | 0.9 | 3.5 | 0.00 | 0.00 | 0.00 | 63 | 1015.6 |
| 20260905145752 | 91 | 238 | 1.7 | 7.0 | 0.00 | 0.00 | 0.00 | 63 | 1015.7 |
| 20260905145250 | 90 | 241 | 1.7 | 7.0 | 0.00 | 0.00 | 0.00 | 61 | 1015.7 |
| 20260905144749 | 90 | 65 | 0.9 | 4.3 | 0.00 | 0.00 | 0.00 | 65 | 1015.6 |
| 20260905144247 | 90 | 214 | 0.9 | 3.5 | 0.00 | 0.00 | 0.00 | 64 | 1015.6 |
| 20260905143747 | 89 | 275 | 0.9 | 3.5 | 0.00 | 0.00 | 0.00 | 66 | 1015.7 |
| 20260905143244 | 89 | 280 | 0.0 | 2.6 | 0.00 | 0.00 | 0.00 | 66 | 1015.7 |
| 20260905142744 | 88 | 166 | 0.0 | 0.0 | 0.00 | 0.00 | 0.00 | 67 | 1015.7 |
| 20260905142503 | 87 | 145 | 0.0 | 0.0 | 0.00 | 0.00 | 0.00 | 70 | 1015.8 |
| 20260905141742 | 87 | 145 | 0.0 | 0.0 | 0.00 | 0.00 | 0.00 | 74 | 1015.8 |
| 20260905141242 | 86 | 179 | 0.0 | 0.0 | 0.00 | 0.00 | 0.00 | 76 | 1015.8 |
| 20260905140740 | 86 | 180 | 0.0 | 0.0 | 0.00 | 0.00 | 0.00 | 73 | 1015.8 |
| 20260905140240 | 86 | 180 | 0.0 | 0.0 | 0.00 | 0.00 | 0.00 | 76 | 1015.9 |
| 20260905135740 | 85 | 180 | 0.0 | 0.0 | 0.00 | 0.00 | 0.00 | 77 | 1015.9 |
| 20260905135237 | 84 | 181 | 0.0 | 0.0 | 0.00 | 0.00 | 0.00 | 78 | 1016.0 |
| 20260905134736 | 83 | 182 | 0.0 | 0.0 | 0.00 | 0.00 | 0.00 | 79 | 1016.0 |
| 20260905134236 | 83 | 182 | 0.0 | 0.0 | 0.00 | 0.00 | 0.00 | 79 | 1016.1 |
| 20260905133736 | 83 | 182 | 0.0 | 0.0 | 0.00 | 0.00 | 0.00 | 80 | 1016.0 |
| 20260905133236 | 82 | 182 | 0.0 | 0.0 | 0.00 | 0.00 | 0.00 | 81 | 1016.1 |
| 20260905132736 | 82 | 182 | 0.0 | 0.0 | 0.00 | 0.00 | 0.00 | 82 | 1016.1 |
| 20260905132236 | 81 | 182 | 0.0 | 0.0 | 0.00 | 0.00 | 0.00 | 83 | 1016.1 |
| 20260905131736 | 80 | 182 | 0.0 | 0.0 | 0.00 | 0.00 | 0.00 | 84 | 1016.1 |
| 20260905131456 | 80 | 182 | 0.0 | 0.0 | 0.00 | 0.00 | 0.00 | 84 | 1016.1 |
| 20260905130734 | 80 | 182 | 0.0 | 0.0 | 0.00 | 0.00 | 0.00 | 85 | 1016.2 |
| 20260905130234 | 79 | 182 | 0.0 | 0.0 | 0.00 | 0.00 | 0.00 | 86 | 1016.1 |
| 20260905125735 | 79 | 182 | 0.0 | 0.0 | 0.00 | 0.00 | 0.00 | 87 | 1016.1 |
| 20260905125235 | 78 | 182 | 0.0 | 0.0 | 0.00 | 0.00 | 0.00 | 87 | 1016.1 |
| 20260905125001 | 78 | 183 | 0.0 | 0.0 | 0.00 | 0.00 | 0.00 | 87 | 1016.0 |
| 20260905124232 | 77 | 183 | 0.0 | 0.0 | 0.00 | 0.00 | 0.00 | 88 | 1015.9 |
| 20260905123731 | 76 | 183 | 0.0 | 0.0 | 0.00 | 0.00 | 0.00 | 89 | 1016.0 |
| 20260905123233 | 76 | 183 | 0.0 | 0.0 | 0.00 | 0.00 | 0.00 | 90 | 1015.9 |
| 20260905122732 | 76 | 183 | 0.0 | 0.0 | 0.00 | 0.00 | 0.00 | 90 | 1015.9 |
| 20260905122232 | 75 | 183 | 0.0 | 0.0 | 0.00 | 0.00 | 0.00 | 91 | 1015.8 |
| 20260905121959 | 75 | 183 | 0.0 | 0.0 | 0.00 | 0.00 | 0.00 | 92 | 1015.9 |
| 20260905121232 | 74 | 183 | 0.0 | 0.0 | 0.00 | 0.00 | 0.00 | 92 | 1015.9 |
| 20260905120731 | 74 | 183 | 0.0 | 0.0 | 0.00 | 0.00 | 0.00 | 92 | 1015.8 |
| 20260905120232 | 74 | 183 | 0.0 | 0.0 | 0.00 | 0.00 | 0.00 | 92 | 1015.8 |
| 20260905115732 | 74 | 183 | 0.0 | 0.0 | 0.00 | 0.00 | 0.00 | 92 | 1015.7 |
| 20260905115232 | 74 | 183 | 0.0 | 0.0 | 0.00 | 0.00 | 0.00 | 92 | 1015.6 |
| 20260905114951 | 74 | 185 | 0.0 | 0.0 | 0.00 | 0.00 | 0.00 | 92 | 1015.6 |
| 20260905114232 | 74 | 185 | 0.0 | 0.0 | 0.00 | 0.00 | 0.00 | 92 | 1015.5 |
| 20260905113732 | 73 | 185 | 0.0 | 0.0 | 0.00 | 0.00 | 0.00 | 92 | 1015.5 |
| 20260905113232 | 73 | 185 | 0.0 | 0.0 | 0.00 | 0.00 | 0.00 | 92 | 1015.4 |
| 20260905112731 | 73 | 185 | 0.0 | 0.0 | 0.00 | 0.00 | 0.00 | 92 | 1015.4 |
| 20260905112232 | 73 | 185 | 0.0 | 0.0 | 0.00 | 0.00 | 0.00 | 92 | 1015.3 |
| 20260905111732 | 73 | 185 | 0.0 | 0.0 | 0.00 | 0.00 | 0.00 | 92 | 1015.2 |
| 20260905111232 | 73 | 185 | 0.0 | 0.0 | 0.00 | 0.00 | 0.00 | 92 | 1015.1 |
| 20260905110732 | 73 | 185 | 0.0 | 0.0 | 0.00 | 0.00 | 0.00 | 92 | 1015.1 |
| 20260905110228 | 73 | 185 | 0.0 | 0.0 | 0.00 | 0.00 | 0.00 | 92 | 1014.9 |
| 20260905105728 | 74 | 185 | 0.0 | 0.0 | 0.00 | 0.00 | 0.00 | 92 | 1015.0 |
| 20260905105228 | 74 | 185 | 0.0 | 0.0 | 0.00 | 0.00 | 0.00 | 91 | 1014.9 |
| 20260905104728 | 74 | 186 | 0.0 | 0.0 | 0.00 | 0.00 | 0.00 | 91 | 1014.8 |
| 20260905104711 | 75 | 189 | 0.0 | 0.0 | 0.00 | 0.00 | 0.00 | 91 | 1014.8 |
| 20260905103948 | 74 | 189 | 0.0 | 0.0 | 0.00 | 0.00 | 0.00 | 91 | 1014.8 |
| 20260905103228 | 74 | 189 | 0.0 | 0.0 | 0.00 | 0.00 | 0.00 | 90 | 1014.8 |
| 20260905102728 | 75 | 189 | 0.0 | 0.0 | 0.00 | 0.00 | 0.00 | 90 | 1014.7 |
| 20260905102226 | 75 | 189 | 0.0 | 0.0 | 0.00 | 0.00 | 0.00 | 89 | 1014.7 |
| 20260905101724 | 75 | 189 | 0.0 | 0.0 | 0.00 | 0.00 | 0.00 | 89 | 1014.7 |
| 20260905101223 | 75 | 189 | 0.0 | 0.0 | 0.00 | 0.00 | 0.00 | 89 | 1014.7 |
| 20260905100724 | 75 | 189 | 0.0 | 0.0 | 0.00 | 0.00 | 0.00 | 89 | 1014.7 |
| 20260905100224 | 76 | 189 | 0.0 | 1.7 | 0.00 | 0.00 | 0.00 | 88 | 1014.7 |
| 20260905095724 | 76 | 189 | 0.9 | 1.7 | 0.00 | 0.00 | 0.00 | 88 | 1014.5 |
| 20260905095223 | 76 | 189 | 0.0 | 1.7 | 0.00 | 0.00 | 0.00 | 89 | 1014.5 |
| 20260905094723 | 75 | 186 | 0.0 | 0.0 | 0.00 | 0.00 | 0.00 | 89 | 1014.6 |
| 20260905094447 | 75 | 186 | 0.0 | 0.0 | 0.00 | 0.00 | 0.00 | 89 | 1014.6 |
| 20260905093724 | 75 | 186 | 0.0 | 0.9 | 0.00 | 0.00 | 0.00 | 88 | 1014.7 |
| 20260905093659 | 75 | 186 | 0.0 | 1.7 | 0.00 | 0.00 | 0.00 | 89 | 1014.6 |
| 20260905092718 | 75 | 185 | 0.0 | 1.7 | 0.00 | 0.00 | 0.00 | 88 | 1014.6 |
| 20260905092217 | 75 | 184 | 0.0 | 0.9 | 0.00 | 0.00 | 0.00 | 88 | 1014.7 |
| 20260905091718 | 76 | 184 | 0.0 | 2.6 | 0.00 | 0.00 | 0.00 | 88 | 1014.7 |
| 20260905091218 | 76 | 185 | 0.0 | 2.6 | 0.00 | 0.00 | 0.00 | 87 | 1014.6 |
| 20260905090718 | 75 | 186 | 0.0 | 1.7 | 0.00 | 0.00 | 0.00 | 88 | 1014.7 |
| 20260905090218 | 75 | 186 | 0.0 | 0.0 | 0.00 | 0.00 | 0.00 | 88 | 1014.7 |
| 20260905085716 | 75 | 186 | 0.0 | 2.6 | 0.00 | 0.00 | 0.00 | 89 | 1014.7 |
| 20260905085214 | 75 | 185 | 0.9 | 2.6 | 0.00 | 0.00 | 0.00 | 90 | 1014.8 |
| 20260905084716 | 74 | 182 | 0.0 | 1.7 | 0.00 | 0.00 | 0.00 | 91 | 1014.8 |
| 20260905084216 | 73 | 181 | 0.0 | 0.0 | 0.00 | 0.00 | 0.00 | 92 | 1014.8 |
| 20260905083716 | 73 | 181 | 0.0 | 0.0 | 0.00 | 0.00 | 0.00 | 92 | 1014.9 |
| 20260905083213 | 73 | 181 | 0.0 | 0.0 | 0.00 | 0.00 | 0.00 | 91 | 1015.0 |
| 20260905082713 | 73 | 181 | 0.0 | 0.0 | 0.00 | 0.00 | 0.00 | 92 | 1014.9 |
| 20260905082214 | 73 | 181 | 0.0 | 0.0 | 0.00 | 0.00 | 0.00 | 91 | 1014.9 |
| 20260905081940 | 73 | 181 | 0.0 | 0.0 | 0.00 | 0.00 | 0.00 | 91 | 1014.9 |
| 20260905081212 | 73 | 181 | 0.0 | 0.0 | 0.00 | 0.00 | 0.00 | 91 | 1015.0 |
| 20260905080710 | 73 | 181 | 0.0 | 0.0 | 0.00 | 0.00 | 0.00 | 91 | 1015.1 |
| 20260905080207 | 74 | 181 | 0.0 | 0.0 | 0.00 | 0.00 | 0.00 | 91 | 1015.2 |
| 20260905075933 | 74 | 181 | 0.0 | 0.0 | 0.00 | 0.00 | 0.00 | 90 | 1015.2 |
| 20260905075205 | 74 | 181 | 0.0 | 0.0 | 0.00 | 0.00 | 0.00 | 90 | 1015.3 |
| 20260905074705 | 74 | 181 | 0.0 | 0.0 | 0.00 | 0.00 | 0.00 | 91 | 1015.3 |
| 20260905074203 | 74 | 181 | 0.0 | 0.0 | 0.00 | 0.00 | 0.00 | 90 | 1015.4 |
| 20260905073704 | 74 | 181 | 0.0 | 0.0 | 0.00 | 0.00 | 0.00 | 90 | 1015.3 |
| 20260905073202 | 74 | 181 | 0.0 | 0.0 | 0.00 | 0.00 | 0.00 | 91 | 1015.4 |
| 20260905072700 | 74 | 180 | 0.0 | 0.0 | 0.00 | 0.00 | 0.00 | 90 | 1015.3 |
| 20260905072159 | 74 | 181 | 0.0 | 0.0 | 0.00 | 0.00 | 0.00 | 90 | 1015.3 |
| 20260905071659 | 74 | 180 | 0.0 | 0.9 | 0.00 | 0.00 | 0.00 | 90 | 1015.4 |
| 20260905071157 | 74 | 181 | 0.0 | 0.9 | 0.00 | 0.00 | 0.00 | 90 | 1015.5 |
| 20260905070655 | 74 | 180 | 0.0 | 0.9 | 0.00 | 0.00 | 0.00 | 90 | 1015.6 |
| 20260905070154 | 74 | 181 | 0.0 | 1.7 | 0.00 | 0.00 | 0.00 | 90 | 1015.5 |
| 20260905065651 | 74 | 181 | 0.0 | 1.7 | 0.00 | 0.00 | 0.00 | 89 | 1015.5 |
| 20260905065407 | 74 | 181 | 0.0 | 0.9 | 0.00 | 0.00 | 0.00 | 89 | 1015.5 |
| 20260905064651 | 74 | 181 | 0.0 | 0.9 | 0.00 | 0.00 | 0.00 | 89 | 1015.5 |
| 20260905064412 | 75 | 180 | 0.0 | 1.7 | 0.00 | 0.00 | 0.00 | 89 | 1015.6 |
| 20260905063648 | 75 | 183 | 0.0 | 0.9 | 0.00 | 0.00 | 0.00 | 89 | 1015.6 |
| 20260905063147 | 75 | 187 | 0.0 | 0.9 | 0.00 | 0.00 | 0.00 | 88 | 1015.5 |
| 20260905062909 | 75 | 187 | 0.0 | 0.9 | 0.00 | 0.00 | 0.00 | 88 | 1015.6 |
| 20260905062402 | 75 | 187 | 0.0 | 0.0 | 0.00 | 0.00 | 0.00 | 88 | 1015.6 |
| 20260905061641 | 76 | 187 | 0.0 | 0.0 | 0.00 | 0.00 | 0.00 | 88 | 1015.7 |
| 20260905061140 | 76 | 187 | 0.0 | 0.9 | 0.00 | 0.00 | 0.00 | 87 | 1015.7 |